GIOVE-A 1 28922U 05051A 12038.20426904 .00000001 00000-0 10000-3 0 9237 2 28922 56.2049 131.9670 0007195 10.4593 349.5738 1.69484515 37925 GIOVE-B 1 32781U 08020A 12038.70849644 .00000020 00000-0 10000-3 0 5584 2 32781 55.9184 166.3335 0020164 220.6278 139.1732 1.70956979 23635 GALILEO-PFM (GSAT0101) 1 37846U 11060A 12039.54359078 .00000005 00000-0 00000+0 0 470 2 37846 54.7120 126.6992 0002627 285.4311 74.5788 1.70474460 1873 GALILEO-FM2 (GSAT0102) 1 37847U 11060B 12039.47830888 .00000005 00000-0 10000-3 0 460 2 37847 54.7129 126.6989 0003575 268.8490 91.1493 1.70474826 1879